STARLINK-35774 (66283 NORAD) Tracking and Keplerian Element Data

This shows tracking and keplerian element data for the satellite.

Feedback or suggestion? Click here.




ElementValue
Catalog66283
NameSTARLINK-35774
Epoch Orbit881
Epoch Day354.00682735
Epoch Year2025
RAAN202.9918
Inclination53.158
Eccentricity9.26E-05
Argument of Perigee354.1102
Mean Anonmoly5.9892
Mean Motion15.39642854
Decay Rate0.0002658
L11 66283U 25247U 25354.00682735 .00026580 00000+0 67166-3 0 9994
L22 66283 53.1580 202.9918 0000926 354.1102 5.9892 15.39642854 8810



Live tracking and technical data element details for STARLINK-35774 (NORAD 66283). STARLINK-35774 can be tracked NOW for your location showing map with azimuth and elevation plus other details from your city location.







IsCatalogInMostPopularTable: catalog: 66283, numindb: 4
Update: records affected: 1



GetName: 66283 STARLINK-35774

Hit Count: updated at: Wed, 15 Apr 2026 00:01:23 GMT